Weather History for El Dorado, AR

Change the Weather History Date:

Wednesday, May 14, 2014

  Actual Average Record
Temperature  
Mean Temperature 53 °F 71 °F  
Max Temperature 59 °F 82 °F 95 °F (1916)
Min Temperature 46 °F 60 °F 43 °F (1971)
Degree Days  
Heating Degree Days 12 1  
Month to date heating degree days 29 15  
Since 1 July heating degree days 3239 2669  
Cooling Degree Days 0 6  
Month to date cooling degree days 70 71  
Year to date cooling degree days 127 170  
Growing Degree Days 4 (Base 50)    
Moisture  
Dew Point 52 °F    
Average Humidity 92    
Maximum Humidity 100    
Minimum Humidity 83    
Precipitation  
Precipitation 0.73 in 0.16 in 1.43 in (2008)
Month to date precipitation 4.76 2.32  
Year to date precipitation 18.97 20.25  
Snow  
Snow 0.00 in - - ()
Month to date snowfall 0.0  
Since 1 July snowfall 1.1  
Snow Depth 0.00 in    
Sea Level Pressure  
Sea Level Pressure 30.12 in    
Wind  
Wind Speed 8 mph (NNW)    
Max Wind Speed 20 mph    
Max Gust Speed 29 mph    
Visibility 8 miles    
Events Rain    
T = Trace of Precipitation, MM = Missing Value Source: NWS Daily Summary

Daily Weather History Graph

Daily Weather History Graph

Search for Another Location

Airport:

Trip Planner

Search our weather history database for the weather conditions in past years. The results will help you decide how hot, cold, wet, or windy it might be!

Date:

Astronomy

May. 14, 2014 Rise Set
Actual Time 6:12 AM CDT 8:03 PM CDT
Civil Twilight 5:44 AM CDT 8:30 PM CDT
Nautical Twilight 5:11 AM CDT 9:03 PM CDT
Astronomical Twilight 4:36 AM CDT 9:38 PM CDT
Moon 8:10 PM CDT (5/14) 6:08 AM CDT (5/14)
Length of Visible Light 14h 45m
Length of Day
13h 51m
Full, 100% of the Moon is Illuminated
May 14
Full
May 14
Full
May 21
Last Quarter
May 28
New
Jun 5
First Quarter

Hourly Weather History & Observations

Time (CDT) Temp. Dew Point Humidity Pressure Visibility Wind Dir Wind Speed Gust Speed Precip Events Conditions
12:53 AM 57.9 °F 57.9 °F 100% 30.13 in 3.0 mi NE 11.5 mph - 0.02 in Rain Light Rain
1:08 AM 57.9 °F 55.9 °F 93% 30.13 in 7.0 mi NNE 10.4 mph - 0.01 in Rain Light Rain
1:53 AM 57.0 °F 55.9 °F 96% 30.11 in 10.0 mi North 8.1 mph - 0.01 in   Overcast
2:13 AM 57.0 °F 55.9 °F 96% 30.10 in 10.0 mi NNE 8.1 mph - N/A   Overcast
2:53 AM 55.4 °F 55.4 °F 100% 30.09 in 5.0 mi North 6.9 mph - N/A Rain Rain
3:01 AM 55.9 °F 55.0 °F 97% 30.08 in 3.0 mi North 10.4 mph - 0.02 in Rain Rain
3:12 AM 55.9 °F 55.0 °F 97% 30.08 in 6.0 mi NNW 8.1 mph - 0.03 in Rain Light Rain
3:22 AM 55.9 °F 55.0 °F 97% 30.09 in 8.0 mi North 5.8 mph - 0.03 in Rain Light Rain
3:53 AM 55.9 °F 54.0 °F 93% 30.07 in 10.0 mi North 6.9 mph - 0.03 in   Overcast
4:13 AM 55.9 °F 54.0 °F 93% 30.08 in 10.0 mi NNW 6.9 mph - N/A   Overcast
4:31 AM 55.0 °F 54.0 °F 96% 30.11 in 6.0 mi West 8.1 mph - 0.02 in Rain Light Rain
4:42 AM 55.0 °F 54.0 °F 96% 30.10 in 2.0 mi NW 10.4 mph - 0.12 in Rain Heavy Rain
4:49 AM 53.6 °F 53.6 °F 100% 30.12 in 3.0 mi NW 11.5 mph 18.4 mph 0.15 in Rain Heavy Rain
4:53 AM 54.0 °F 54.0 °F 100% 30.11 in 3.0 mi WNW 11.5 mph - 0.16 in Rain Rain
5:15 AM 54.0 °F 53.1 °F 97% 30.12 in 5.0 mi NW 9.2 mph - 0.02 in Rain Rain
5:53 AM 54.0 °F 53.1 °F 97% 30.09 in 10.0 mi NNW 12.7 mph 19.6 mph 0.06 in Rain Light Rain
6:10 AM 53.1 °F 52.0 °F 96% 30.10 in 8.0 mi NNW 11.5 mph - 0.02 in Rain Light Rain
6:46 AM 53.1 °F 53.1 °F 100% 30.09 in 4.0 mi NNW 11.5 mph 18.4 mph 0.13 in Rain Rain
6:53 AM 53.1 °F 52.0 °F 96% 30.09 in 4.0 mi NW 9.2 mph 18.4 mph 0.15 in Rain Rain
7:53 AM 53.1 °F 52.0 °F 96% 30.06 in 4.0 mi North 12.7 mph - 0.15 in Rain Rain
7:57 AM 53.1 °F 52.0 °F 96% 30.07 in 5.0 mi North 13.8 mph - 0.00 in Rain Rain
8:45 AM 53.1 °F 52.0 °F 96% 30.11 in 5.0 mi NW 5.8 mph - 0.05 in Rain Rain
8:53 AM 53.1 °F 52.0 °F 96% 30.11 in 8.0 mi WNW 8.1 mph - 0.05 in Rain Light Rain
9:11 AM 53.1 °F 52.0 °F 96% 30.13 in 2.0 mi Variable 4.6 mph - 0.03 in Rain Rain
9:25 AM 53.1 °F 52.0 °F 96% 30.11 in 2.5 mi NW 8.1 mph - 0.08 in Rain Rain
9:33 AM 53.6 °F 53.6 °F 100% 30.12 in 6.0 mi NW 9.2 mph - N/A Rain Light Rain
9:53 AM 53.6 °F 53.6 °F 100% 30.13 in 8.0 mi WNW 6.9 mph - N/A Rain Light Rain
10:41 AM 54.0 °F 53.1 °F 97% 30.12 in 7.0 mi NNW 9.2 mph - 0.01 in Rain Light Rain
10:53 AM 55.0 °F 53.1 °F 93% 30.12 in 10.0 mi NW 10.4 mph - 0.01 in Rain Light Rain
11:02 AM 55.0 °F 53.1 °F 93% 30.11 in 10.0 mi NNW 11.5 mph - 0.01 in Rain Light Rain
11:53 AM 55.0 °F 53.1 °F 93% 30.12 in 10.0 mi NW 10.4 mph - 0.01 in   Overcast
12:53 PM 55.9 °F 53.1 °F 90% 30.12 in 7.0 mi NNW 12.7 mph - N/A   Overcast
1:53 PM 57.0 °F 53.1 °F 87% 30.11 in 10.0 mi NW 11.5 mph - 0.00 in Rain Light Rain
2:22 PM 57.0 °F 51.1 °F 81% 30.12 in 10.0 mi NW 15.0 mph - 0.00 in   Overcast
2:53 PM 57.0 °F 52.0 °F 83% 30.11 in 5.0 mi NW 18.4 mph 24.2 mph 0.00 in Rain Light Rain
3:53 PM 57.2 °F 51.8 °F 82% 30.11 in 10.0 mi WNW 10.4 mph - N/A   Overcast
4:31 PM 57.0 °F 52.0 °F 83% 30.11 in 10.0 mi WNW 11.5 mph - N/A   Overcast
4:53 PM 57.0 °F 50.0 °F 77% 30.11 in 10.0 mi NW 11.5 mph - 0.00 in Rain Light Rain
5:33 PM 57.9 °F 51.1 °F 78% 30.12 in 10.0 mi NNW 12.7 mph 21.9 mph 0.00 in   Overcast
5:53 PM 55.9 °F 50.0 °F 80% 30.13 in 10.0 mi NNW 9.2 mph - 0.00 in Rain Light Rain
6:11 PM 55.9 °F 50.0 °F 80% 30.14 in 10.0 mi NNW 11.5 mph - 0.00 in   Overcast
6:35 PM 55.4 °F 50.0 °F 82% 30.15 in 10.0 mi NNW 6.9 mph - N/A   Overcast
6:49 PM 55.4 °F 48.2 °F 77% 30.15 in 10.0 mi NNW 9.2 mph - 0.00 in   Mostly Cloudy
6:53 PM 55.9 °F 48.9 °F 77% 30.15 in 10.0 mi NNW 8.1 mph - 0.00 in   Mostly Cloudy
7:53 PM 54.0 °F 48.0 °F 80% 30.18 in 10.0 mi North 6.9 mph - N/A   Mostly Cloudy
8:53 PM 51.1 °F 48.9 °F 92% 30.19 in 10.0 mi Calm Calm - N/A   Clear
9:53 PM 50.0 °F 48.2 °F 94% 30.21 in 10.0 mi Calm Calm - N/A   Mostly Cloudy
10:53 PM 50.0 °F 48.0 °F 93% 30.21 in 10.0 mi Calm Calm - N/A   Scattered Clouds
11:53 PM 48.0 °F 46.0 °F 93% 30.21 in 10.0 mi Calm Calm - N/A   Clear